Showing default

EXPLORER 29 (GEOS 1), 1726

Orbit data source: Space-Track

EXPLORER 29 (GEOS 1), 1726 is a payload satellite owned by GSFC (US) in LEO that was launched on Sat, 06 Nov 1965 UTC via a THOR DELTA E launch vehicle from the Air Force Eastern Test Range (AFETR). Payload-class satellites include a variety of spacecraft equipped with specific instruments for various scientific and technological missions. These include communications satellites like Starlink; space stations such as the ISS; scientific satellites like the Hubble; Earth observation satellites from companies like Planet Labs, Umbra, and HawkEye 360; GPS; miniature CubeSats for education and research; and military/defense satellites.

Loading next visibility...
Identifier
1726, 1965-089A
Orbit
LEO
Country
Flag of USUS
Related business
Manufacturer
APL
Mission
Spacecraft
Bus & Motor
ANNA, Unknown motor
Mass
176 kg wet, 176 kg dry
Launch date (UTC)
1965-11-06 (61 years ago)
Launch vehicle
THOR DELTA E
Launch site
Air Force Eastern Test Range (AFETR)
Object type
Payload
Rocket body
Debris
Shape & HBR
OCT CYL + DOME + ANT, 7.5 m
Radar Cross Section
Large (>1 m²)

Expand to show TLE details & history
Last TLE update: 20 hours ago

TLE from 20 hours ago
0 EXPLORER 29 (GEOS 1)
1 01726U 65089A   26208.25911465 -.00000025  00000-0  29559-3 0  9996
2 01726  59.3860 298.9886 0711709 247.1717 136.7266 11.97078040654466
Epoch: 2026-07-27T06:13Z
TLE epoch observation values (Epoch: 2026-07-27T06:13:07.505Z)
Latitude
24.82024°
Longitude
-83.42862°
Altitude
2,131.498 km
Speed
6.66 km/s
True Right ascension
20h 59m 11s
True Declination
24° 42' 38"
Sunlit
Object was in full shadow at epoch
Visualization orbit readout
Latitude
Unknown
Longitude
Unknown
Altitude
Unknown
Speed
Unknown
Apparent Right ascension
Unknown
Apparent Declination
Unknown
Sunlit
N/A
Visualization observer readout
Local Sidereal Time
15:14:13
Azimuth
Unknown
Elevation
Unknown
Doppler factor
Unknown
Orbital elements
Apogee altitude
2,267.82 km
Perigee altitude
1,118.908 km
Semi-major axis
8,071.501 km
Eccentricity
0.07117
Inclination
59.386°
RAAN
298.9886°
Arg. of periapsis
247.1717°
True anomaly
141.96899°
Mean anomaly
136.7266°
Eccentric anomaly
139.38133°
Mean motion
2.99303 °/min
Orbital period
120.28 mins
BSTAR
0.00029559
Loading maneuver chart data...
Computing Atmospheric mass density...
Loading historical data...
Loading historical data...
Loading historical data...
Loading historical data...
Loading historical data...
Loading historical data...
Loading historical data...

Documentation

Showing up to 5 results
|